STARLINK-32679, 62507

Orbit data source: Space-Track

STARLINK-32679, 62507 is a payload satellite owned by SpaceX/Seattle (US) in LEO that was launched on Mon, 06 Jan 2025 UTC via an FALCON 9 launch vehicle from the Air Force Eastern Test Range (AFETR). Payload-class satellites include a variety of spacecraft equipped with specific instruments for various scientific and technological missions. These include communications satellites like Starlink; space stations such as the ISS; scientific satellites like the Hubble; Earth observation satellites from companies like Planet Labs, Umbra, and HawkEye 360; GPS; miniature CubeSats for education and research; and military/defense satellites.

Loading next visibility...
Identifier
62507, 2025-003W
Orbit
LEO
Country
Flag of USUS
Related business
Manufacturer
SpaceX/Seattle
Mission
Operational Commercial Communications
Bus & Motor
STARLINK V2M, Unknown motor
Mass
730 kg wet, ~700 kg dry
Launch date (UTC)
2025-01-06 (1 year ago)
Launch vehicle
FALCON 9
Launch site
Air Force Eastern Test Range (AFETR)
Object type
Payload
Rocket body
Debris
Shape & HBR
Box + 2 Pan, 17.7 m
Radar Cross Section
33.884 m², Large (>1 m²)

Expand to show TLE details & history
Last TLE update: 22 hours ago

TLE from 22 hours ago
0 STARLINK-32679
1 62507U 25003W   26170.93292765  .00016330  00000-0  60096-3 0  9996
2 62507  43.0016  71.9188 0002140 258.3251 101.7361 15.27616245 82304
Epoch: 2026-06-19T22:23Z
TLE epoch observation values (Epoch: 2026-06-19T22:23:24.948Z)
Latitude
-0.00001°
Longitude
-172.08996°
Altitude
483.015 km
Speed
7.626 km/s
True Right ascension
04h 47m 40s
True Declination
0° 00' 00"
Sunlit
Object was in daylight at epoch
Visualization orbit readout
Latitude
Unknown
Longitude
Unknown
Altitude
Unknown
Speed
Unknown
Apparent Right ascension
Unknown
Apparent Declination
Unknown
Sunlit
N/A
Visualization observer readout
Local Sidereal Time
07:16:48
Azimuth
Unknown
Elevation
Unknown
Doppler factor
Unknown
Orbital elements
Apogee altitude
486.354 km
Perigee altitude
483.417 km
Semi-major axis
6,863.023 km
Eccentricity
0.00021
Inclination
43.0016°
RAAN
71.9188°
Arg. of periapsis
258.3251°
True anomaly
101.76011°
Mean anomaly
101.7361°
Eccentric anomaly
101.7481°
Mean motion
3.81742 °/min
Orbital period
94.3 mins
BSTAR
0.00060096
Loading maneuver chart data...
Computing Atmospheric mass density...
Loading historical data...
Loading historical data...
Loading historical data...
Loading historical data...
Loading historical data...
Loading historical data...
Loading historical data...

Documentation

Showing up to 5 results
|